This is the latest recevied weather packets stored in our database for station/object N8GD. If no packets are shown the sender has not sent any weather packets the latest 10 day(s).
| Time | Temp. | Humidity | Pressure | Rain* | Wind** | Luminosity | Snow |
|---|---|---|---|---|---|---|---|
| 1777942304 | 18.33° C | 62% | 1007.2 hPa | 0 mm | - | - | - |
| 1777941462 | 18.33° C | 62% | 1007.1 hPa | 0 mm | - | - | - |
| 1777941425 | 18.33° C | 61% | 1007.1 hPa | 0 mm | - | - | - |
| 1777940563 | 18.89° C | 61% | 1006.8 hPa | 0 mm | - | - | - |
| 1777939662 | 19.44° C | 59% | 1006.8 hPa | 0 mm | - | - | - |
| 1777938763 | 19.44° C | 59% | 1006.7 hPa | 0 mm | - | - | - |
| 1777937864 | 20° C | 57% | 1006.7 hPa | 0 mm | - | - | - |
| 1777936963 | 20° C | 56% | 1006.7 hPa | 0 mm | - | - | - |
| 1777936064 | 20.56° C | 56% | 1006.7 hPa | 0 mm | - | - | - |
| 1777935163 | 20.56° C | 55% | 1007.1 hPa | 0 mm | - | - | - |
| 1777934264 | 20.56° C | 56% | 1007 hPa | 0 mm | - | - | - |
| 1777933363 | 21.11° C | 56% | 1007.2 hPa | 0 mm | - | - | - |
| 1777933302 | 21.11° C | 56% | 1007.2 hPa | 0 mm | - | - | - |
| 1777932464 | 20.56° C | 56% | 1007.2 hPa | 0 mm | - | - | - |
| 1777932419 | 20.56° C | 56% | 1007.2 hPa | 0 mm | - | - | - |
| 1777931562 | 20.56° C | 55% | 1007.1 hPa | 0 mm | - | - | - |
| 1777931512 | 20.56° C | 55% | 1007.1 hPa | 0 mm | - | - | - |
| 1777930663 | 21.11° C | 54% | 1007 hPa | 0 mm | - | - | - |
| 1777929762 | 20.56° C | 55% | 1007 hPa | 0 mm | - | - | - |
| 1777928863 | 21.67° C | 53% | 1006.8 hPa | 0 mm | - | - | - |
| 1777927962 | 21.67° C | 53% | 1006.9 hPa | 0 mm | - | - | - |
| 1777927064 | 20.56° C | 56% | 1006.8 hPa | 0 mm | - | - | - |
| 1777926163 | 21.11° C | 54% | 1007.3 hPa | 0 mm | - | - | - |
| 1777925264 | 21.67° C | 53% | 1007.4 hPa | 0 mm | - | - | - |
| 1777924363 | 21.67° C | 52% | 1007.7 hPa | 0 mm | - | - | - |
* Rain latest hour (hover to see other rain measurements)
** Current wind speed in m/s (hover to see current wind gust speed)